sat.trackr.live / text

‹ back to catalog

STARLINK-5150

NORAD 57144 · 2023-090AV

PAYLOAD ACTIVE UNKNOWN

§ Identity

Operator
Country
US
Launch date
2023-06-23
Launch site
AFETR
Launch vehicle
Mass (kg)
RCS (m²)

Purposes: comms

External: N2YO · Heavens-Above · Gunter

§ Orbital elements

Epoch: 2026-09-20T15:41:40.303680Z

Period
94.27 min
Inclination
43.0031°
Eccentricity
0.0000826
Mean motion
15.27573639 rev/d
Perigee alt
482.5 km
Apogee alt
483.6 km
Semi-major
6,861.2 km
B*
2.2508e-6
RAAN
242.0320°
Arg perigee
304.7076°
Mean anomaly
55.3697°
Rev number
18,017

§ Raw data

STARLINK-51501 57144U 23090AV  26263.65393870 -.00000200  00000+0  22508-5 0  99992 57144  43.0031 242.0320 0000826 304.7076  55.3697 15.27573639180170

JSON: /api/v1/satellites/57144 · /tle

For live sub-satellite position, see the globe view (requires WebGL).

§ Visibility from observer

Set your observer location to see the next 7 days of passes ≥ 10°. The values pass through the URL so the page stays shareable.

No JS? Fill the form by hand. The geolocation button needs JavaScript.